Powrót do katalogu

STARLINK-4605

AktywnyŁącznośćVLEO
NORAD 53616·PAYLOAD·🇺🇸 United States

Wystrzelony Aug 28, 2022 z Cape Canaveral Space Force Station

Loading…

Następne Przeloty (najbliższe 24 godziny)

TLE

ŚwieżeSource: CelesTrak SupGP

Epoka: Sep 14, 2026, 21:22 UTC

1 53616C 22104AE  26257.89076389  .00011611  00000+0  34317-3 0  2579
2 53616  53.1586  87.7263 0001183  77.5693  44.8242 15.34375551    18

Śledź STARLINK-4605 w czasie rzeczywistym z AllMySat

Download on the App Store